Grapevine, CA Past Weather

Last 30 Days

High: 67ºf @12:13 AM    Low: 64ºf @3:13 AM     Approx. Precipitation / Rain Total: in.
Time (PDT)Temp. (ºf)Humidity (%)Dew Point (ºf)Barometer (inHG)Wind Speed (mph)Wind DirectionWind Gust (mph)1hr. Precip / Rain Total (in.)Snow Depth
4:13 AM643031.94-4.34ssw7.82--
3:13 AM642931.11-5.21ssw6.95--
2:13 AM652831.1-5.21ssw8.69--
1:13 AM672530.02-5.21ssw6.08--
12:13 AM672530.02-3.48s8.69--
High: 78ºf @12:13 PM    Low: 56ºf @3:13 AM     Approx. Precipitation / Rain Total: in.
Time (PDT)Temp. (ºf)Humidity (%)Dew Point (ºf)Barometer (inHG)Wind Speed (mph)Wind DirectionWind Gust (mph)1hr. Precip / Rain Total (in.)Snow Depth
11:13 PM682429.86-3.48s8.69--
10:13 PM682328.82-4.34s8.69--
9:13 PM682429.86-3.48s6.95--
8:13 PM683136.23-4.34ssw8.69--
7:13 PM722736.18-5.21ssw10.43--
6:13 PM732535.09-6.08ssw11.3--
5:13 PM762436.59-6.08s11.3--
4:13 PM772134.06-5.21s13.03--
3:13 PM762133.23-5.21ssw12.17--
2:13 PM742232.73-6.95ssw12.17--
1:13 PM732535.09-6.95sw10.43--
12:13 PM782033.67-4.34ne10.43--
11:13 AM712735.33-4.34ssw7.82--
10:13 AM712634.38-4.34sw7.82--
9:13 AM702633.53-3.48sse7.82--
8:13 AM672832.82-3.48sse6.95--
7:13 AM643435.07-3.48ssw6.08--
6:13 AM594034.71-3.48s6.08--
5:13 AM574234.14-2.61s6.95--
4:13 AM573428.91-5.21ssw6.95--
3:13 AM564534.96-3.48s8.69--
2:13 AM584235.04-4.34s8.69--
1:13 AM583933.18-5.21ssw9.56--
12:13 AM593833.43-5.21s10.43--
High: 69ºf @5:13 PM    Low: 49ºf @5:13 AM     Approx. Precipitation / Rain Total: in.
Time (PDT)Temp. (ºf)Humidity (%)Dew Point (ºf)Barometer (inHG)Wind Speed (mph)Wind DirectionWind Gust (mph)1hr. Precip / Rain Total (in.)Snow Depth
11:13 PM603733.65-6.08ssw11.3--
10:13 PM603532.27-6.08ssw8.69--
9:13 PM602826.81-6.95ssw10.43--
8:13 PM613533.15-6.08ssw9.56--
7:13 PM653234.42-5.21ssw13.9--
6:13 PM672832.82-6.95ssw13.9--
5:13 PM692733.62-6.08s13.9--
4:13 PM672832.82-7.82ssw13.9--
3:13 PM672832.82-7.82ssw13.03--
2:13 PM663033.67-7.82ssw13.9--
1:13 PM662932.83-6.08ssw13.03--
12:13 PM672933.69-5.21sw11.3--
11:13 AM613331.69-7.82ssw12.17--
10:13 AM603330.82-5.21sw9.56--
9:13 AM593229.19-6.08sw8.69--
8:13 AM563528.74-5.21s9.56--
7:13 AM533727.43-4.34s11.3--
6:13 AM504127.24-3.48s8.69--
5:13 AM494126.34-6.95ssw13.9--
4:13 AM503221.32-6.95s13.9--
3:13 AM513020.67-7.82s13.9--
2:13 AM513222.19-6.95ssw11.3--
1:13 AM523424.51-6.08ssw12.17--
12:13 AM533223.94-7.82ssw13.9--
High: 64ºf @5:13 PM    Low: 48ºf @6:13 AM     Approx. Precipitation / Rain Total: in.
Time (PDT)Temp. (ºf)Humidity (%)Dew Point (ºf)Barometer (inHG)Wind Speed (mph)Wind DirectionWind Gust (mph)1hr. Precip / Rain Total (in.)Snow Depth
11:13 PM543526.97-7.82ssw14.77--
10:13 PM563125.8-7.82ssw14.77--
9:13 PM564233.24-6.95ssw14.77--
8:13 PM584335.63-8.69ssw18.25--
7:13 PM613533.15-9.56ssw17.38--
6:13 PM633635.62-9.56ssw20.86--
5:13 PM643938.54-6.95s13.9--
4:13 PM643535.8-6.95s15.64--
3:13 PM634239.54-6.08s14.77--
2:13 PM624339.25-7.82s14.77--
1:13 PM613935.86-7.82s15.64--
12:13 PM594336.53-6.95s13.9--
11:13 AM578753.17-7.82s15.64--
10:13 AM555237.7-7.82s14.77--
9:13 AM545337.26-6.95ssw13.03--
8:13 AM496738.53-6.08s13.9--
7:13 AM4810048-7.82ssw12.17--
6:13 AM4810048-6.95ssw15.64--
5:13 AM5210052-6.08ssw13.9--
4:13 AM5210052-5.21ssw13.03--
3:13 AM5310053-6.95s12.17--
2:13 AM5410054-7.82ssw13.03--
1:13 AM579956.72-7.82ssw13.9--
12:13 AM618757.1-8.69ssw15.64--
High: 78ºf @4:13 PM    Low: 62ºf @5:13 AM     Approx. Precipitation / Rain Total: in.
Time (PDT)Temp. (ºf)Humidity (%)Dew Point (ºf)Barometer (inHG)Wind Speed (mph)Wind DirectionWind Gust (mph)1hr. Precip / Rain Total (in.)Snow Depth
11:13 PM637554.95-9.56ssw13.9--
10:13 PM666453.47-6.08ssw12.17--
9:13 PM695451.65-4.34wnw12.17--
8:13 PM724750.65-5.21ssw11.3--
7:13 PM734550.39-5.21ssw13.03--
6:13 PM764251.23-6.95ssw13.03--
5:13 PM773950.13-7.82ssw16.51--
4:13 PM783749.6-6.95ssw13.03--
3:13 PM773748.71-6.95ssw13.9--
2:13 PM763647.1-7.82ssw19.99--
1:13 PM773244.86-6.08ssw12.17--
12:13 PM743947.46-6.95ssw14.77--
11:13 AM723744.29-7.82ssw14.77--
10:13 AM723945.67-6.95ssw15.64--
9:13 AM723744.29-6.08ssw11.3--
8:13 AM704044.56-6.95ssw9.56--
7:13 AM664946.28-5.21s8.69--
6:13 AM634943.53-5.21s12.17--
5:13 AM625947.5-6.08s11.3--
4:13 AM636149.33-5.21s12.17--
3:13 AM626449.68-8.69ssw14.77--
2:13 AM673840.55-6.08ssw12.17--
1:13 AM693540.2-7.82ssw11.3--
12:13 AM722937.99-6.95ssw11.3--
High: 81ºf @3:13 PM    Low: 65ºf @5:13 AM     Approx. Precipitation / Rain Total: in.
Time (PDT)Temp. (ºf)Humidity (%)Dew Point (ºf)Barometer (inHG)Wind Speed (mph)Wind DirectionWind Gust (mph)1hr. Precip / Rain Total (in.)Snow Depth
11:13 PM732938.85-6.08ssw9.56--
10:13 PM722937.99-4.34ssw6.95--
9:13 PM723139.7-4.34ssw7.82--
8:13 PM733140.57-3.48ssw10.43--
7:13 PM763042.31-6.08ssw10.43--
6:13 PM793044.9-5.21ssw9.56--
4:13 PM803247.47-6.95ssw12.17--
3:13 PM812743.84-6.08s12.17--
2:13 PM803045.76-5.21s10.43--
1:13 PM773244.86-6.95ssw12.17--
12:13 PM792944.01-5.21ssw12.17--
11:13 AM733543.72-7.82ssw14.77--
10:13 AM733442.96-7.82ssw13.03--
9:13 AM753041.45-6.08ssw9.56--
8:13 AM713340.44-5.21ssw9.56--
7:13 AM683539.32-6.95sse13.03--
6:13 AM664845.74-5.21s9.56--
5:13 AM655045.9-5.21s9.56--
4:13 AM665147.35-5.21s10.43--
3:13 AM675148.27-5.21s11.3--
2:13 AM704748.83-4.34ssw10.43--
1:13 AM724247.64-6.08ssw9.56--
12:13 AM724147-5.21s7.82--
High: 80ºf @5:13 PM    Low: 64ºf @4:13 AM     Approx. Precipitation / Rain Total: in.
Time (PDT)Temp. (ºf)Humidity (%)Dew Point (ºf)Barometer (inHG)Wind Speed (mph)Wind DirectionWind Gust (mph)1hr. Precip / Rain Total (in.)Snow Depth
11:13 PM733946.57-4.34s8.69--
10:13 PM733946.57-4.34ssw7.82--
9:13 PM733946.57-3.48sse7.82--
8:13 PM744148.79-2.61s7.82--
7:13 PM773950.13-4.34s8.69--
6:13 PM793951.9-5.21ssw10.43--
5:13 PM803751.36-5.21ssw9.56--
4:13 PM803852.09-5.21ssw10.43--
3:13 PM803952.79-5.21s13.03--
2:13 PM803852.09-6.95s11.3--
1:13 PM784152.37-6.08ssw13.9--
12:13 PM764150.58-7.82sw12.17--
11:13 AM754049.02-6.95ssw11.3--
10:13 AM763949.24-4.34ssw8.69--
9:13 AM734047.24-5.21sw8.69--
8:13 AM714146.1-4.34ssw7.82--
7:13 AM694446.17-5.21ssw6.95--
6:13 AM664443.46-3.48s5.21--
5:13 AM644944.45-4.34s6.08--
4:13 AM645748.46-4.34s8.69--
2:13 AM655447.94-5.21ssw6.95--
1:13 AM664845.74-4.34s7.82--
12:13 AM655347.45-4.34s8.69--
High: 76ºf @2:13 PM    Low: 65ºf @9:13 PM     Approx. Precipitation / Rain Total: in.
Time (PDT)Temp. (ºf)Humidity (%)Dew Point (ºf)Barometer (inHG)Wind Speed (mph)Wind DirectionWind Gust (mph)1hr. Precip / Rain Total (in.)Snow Depth
11:13 PM655849.86-3.48s6.08--
10:13 PM655950.32-4.34ssw6.08--
9:13 PM655749.39-5.21ssw7.82--
8:13 PM675449.8-3.48s10.43--
7:13 PM695150.11-5.21ssw8.69--
6:13 PM734550.39-5.21ssw10.43--
5:13 PM754451.59-6.95ssw12.17--
4:13 PM744249.44-5.21ssw9.56--
3:13 PM744350.07-6.08ssw11.3--
2:13 PM763949.24-6.08ssw12.17--
1:13 PM733946.57-6.95ssw12.17--
12:13 PM723945.67-7.82ssw12.17--
11:13 AM733946.57-5.21sw9.56--
10:13 AM733946.57-4.34sw6.95--
Past Weather Disclaimer Note regarding "Approx. Precipitation / Rain Total"

Currently

Fair 77°F
30.05in
Barometer
22%
Humidity
Southwest 8.1mph
Wind
Fair

Past Weather Nearby

More Local Information

Bookmark and Share

Go Ad Free - Become a Member